Location: Newark
(45.9167°N, 5.5000°E)
Time: 14:37:41
(UTC+00:00)

ISS - Pass Details

Date: 26 January 2020
Orbit: 415 x 423 km, 51.6° (Epoch: 01 March)

Event Time Altitude Azimuth Distance (km) Brightness Sun altitude
Rises 17:18:56 0° 247° (WSW) 2,374 2.6 -8.1°
Reaches altitude 10° 17:21:02 10° 250° (WSW) 1,511 0.8 -8.4°
Maximum altitude 17:24:25 70° 335° (NNW) 455 -3.6 -9.0°
Enters shadow 17:27:23 13° 59° (ENE) 1,344 -1.8 -9.5°
